TimeEDT,TemperatureF,Dew PointF,Humidity,Sea Level PressureIn,VisibilityMPH,Wind Direction,Wind SpeedMPH,Gust SpeedMPH,PrecipitationIn,Events,Conditions,WindDirDegrees,DateUTC
12:54 AM,52.0,46.0,80,30.36,10.0,North,3.5,-,N/A,,Partly Cloudy,360,2013-10-10 04:54:00
1:54 AM,51.1,46.0,83,30.36,10.0,North,4.6,-,N/A,,Partly Cloudy,350,2013-10-10 05:54:00
2:54 AM,50.0,46.0,86,30.35,10.0,North,5.8,-,N/A,,Partly Cloudy,350,2013-10-10 06:54:00
3:54 AM,48.9,45.0,86,30.34,10.0,North,5.8,-,N/A,,Partly Cloudy,350,2013-10-10 07:54:00
4:54 AM,48.9,45.0,86,30.32,10.0,North,6.9,-,N/A,,Partly Cloudy,360,2013-10-10 08:54:00
5:54 AM,48.9,44.1,83,30.32,10.0,North,5.8,-,N/A,,Mostly Cloudy,350,2013-10-10 09:54:00
6:54 AM,48.9,45.0,86,30.32,10.0,North,4.6,-,N/A,,Mostly Cloudy,360,2013-10-10 10:54:00
7:54 AM,51.1,45.0,80,30.32,10.0,NNW,6.9,-,N/A,,Mostly Cloudy,340,2013-10-10 11:54:00
8:54 AM,52.0,46.0,80,30.32,10.0,North,6.9,-,N/A,,Mostly Cloudy,360,2013-10-10 12:54:00
9:54 AM,57.0,48.9,74,30.32,10.0,North,6.9,-,N/A,,Mostly Cloudy,10,2013-10-10 13:54:00
10:54 AM,60.1,50.0,69,30.30,10.0,NE,9.2,-,N/A,,Mostly Cloudy,50,2013-10-10 14:54:00
11:54 AM,60.1,50.0,69,30.30,10.0,East,9.2,-,N/A,,Overcast,80,2013-10-10 15:54:00
12:54 PM,61.0,51.1,70,30.27,10.0,ENE,11.5,-,N/A,,Overcast,70,2013-10-10 16:54:00
1:54 PM,60.1,51.1,72,30.26,10.0,ENE,11.5,-,N/A,,Overcast,70,2013-10-10 17:54:00
2:54 PM,59.0,51.1,75,30.26,10.0,East,8.1,-,N/A,,Overcast,80,2013-10-10 18:54:00
3:54 PM,57.9,51.1,78,30.24,10.0,East,9.2,-,N/A,,Overcast,80,2013-10-10 19:54:00
4:54 PM,57.9,52.0,81,30.23,10.0,ENE,10.4,-,N/A,,Overcast,70,2013-10-10 20:54:00
5:54 PM,57.0,52.0,83,30.23,10.0,ENE,10.4,-,N/A,,Overcast,60,2013-10-10 21:54:00
6:54 PM,57.0,51.1,81,30.22,10.0,ENE,8.1,-,N/A,,Overcast,60,2013-10-10 22:54:00
7:54 PM,57.0,52.0,83,30.22,10.0,NE,5.8,-,N/A,,Overcast,50,2013-10-10 23:54:00
8:32 PM,57.2,51.8,82,30.22,10.0,NE,5.8,-,N/A,,Overcast,40,2013-10-11 00:32:00
8:54 PM,57.0,52.0,83,30.21,10.0,NNE,6.9,-,N/A,,Overcast,20,2013-10-11 00:54:00
9:54 PM,55.9,52.0,87,30.21,10.0,NNE,5.8,-,N/A,,Overcast,20,2013-10-11 01:54:00
10:54 PM,55.9,52.0,87,30.20,10.0,North,5.8,-,N/A,,Overcast,350,2013-10-11 02:54:00
11:54 PM,55.0,51.1,86,30.19,10.0,North,5.8,-,N/A,,Mostly Cloudy,360,2013-10-11 03:54:00